Location: Newark
(35.8833°N, 14.5000°E)
Time: 06:09:13
(UTC+00:00)

Altair - Visible Passes

Search period start: 18 November 2019 00:00
Search period end: 28 November 2019 00:00
Orbit: 1502 x 1682 km, 47.2° (Epoch: 17 November)

Date Brightness Start Highest point End Pass type
(mag) Time Alt. Az. Time Alt. Az. Time Alt. Az.
18 Nov 9.6 00:35:56 13° ENE 00:35:56 13° ENE 00:36:46 10° ENE visible
18 Nov 7.5 02:33:58 66° NNE 02:33:58 66° NNE 02:42:01 10° NE visible
18 Nov 8.0 04:32:01 17° WNW 04:38:38 42° N 04:47:24 10° ENE visible
19 Nov 7.9 02:10:23 50° NE 02:10:23 50° NE 02:16:50 10° NE visible
19 Nov 7.9 04:08:26 25° WNW 04:13:21 43° N 04:22:07 10° ENE visible
20 Nov 8.4 01:46:47 37° NE 01:46:47 37° NE 01:51:40 10° NE visible
20 Nov 7.9 03:44:48 33° NW 03:48:04 44° N 03:56:50 10° ENE visible
21 Nov 8.9 01:23:07 26° NE 01:23:07 26° NE 01:26:30 10° NE visible
21 Nov 7.8 03:21:09 42° NW 03:22:47 45° NNW 03:31:35 10° ENE visible
22 Nov 9.3 00:59:26 18° ENE 00:59:26 18° ENE 01:01:19 10° ENE visible
22 Nov 7.8 02:57:28 46° NNW 02:57:31 46° NNW 03:06:20 10° ENE visible
22 Nov 8.1 04:55:29 11° WNW 05:03:58 44° NNE 05:12:51 10° E visible
23 Nov 9.7 00:35:44 12° ENE 00:35:44 12° ENE 00:36:09 10° ENE visible
23 Nov 8.0 02:33:45 44° N 02:33:45 44° N 02:41:06 10° ENE visible
23 Nov 8.1 04:31:46 16° NW 04:38:41 43° N 04:47:29 10° E visible
24 Nov 8.3 02:10:02 38° NNE 02:10:02 38° NNE 02:15:53 10° ENE visible
24 Nov 8.1 04:08:03 23° NW 04:13:24 42° N 04:22:08 10° ENE visible
25 Nov 8.7 01:46:17 30° NE 01:46:17 30° NE 01:50:40 10° NE visible
25 Nov 8.1 03:44:19 30° NW 03:48:07 42° N 03:56:48 10° ENE visible
26 Nov 9.1 01:22:33 22° NE 01:22:33 22° NE 01:25:28 10° NE visible
26 Nov 8.0 03:20:34 36° NNW 03:22:49 41° N 03:31:28 10° ENE visible
26 Nov 7.7 05:19:42 10° NW 05:28:51 67° NNE 05:38:15 10° ESE visible
27 Nov 9.4 00:58:48 16° NE 00:58:48 16° NE 01:00:17 10° NE visible
27 Nov 8.0 02:56:50 40° N 02:57:32 41° N 03:06:08 10° ENE visible
27 Nov 7.7 04:54:51 11° NW 05:03:39 63° NNE 05:12:57 10° ESE visible
